When you browse on this site, cookies collect data to enhance your experience and personalize the content and advertising you see.
Visit our Privacy Policy to learn more. By continuing to use the site, you agree to this use of cookies and data.
  • In Hungary
  • List of Countries
  • For 7 days
  • Water Temperature
  • Satellite Maps
  • Weather Map
  • News
  • Weather Widgets
  • user-avatar
    Login

    Hourly Weather Klishkivtsi

    Today, 24 July, Wednesday

    Time Temperature Precipitation Wind Pressure Humidity
    00:00 +14°C° 0 mm 3 mps 740 mmHg 93%
    01:00 +14°C° 0 mm 3 mps 740 mmHg 94%
    02:00 +13°C° 0 mm 3 mps 740 mmHg 95%
    03:00 +13°C° 0 mm 3 mps 739 mmHg 96%
    04:00 +13°C° 0 mm 3 mps 739 mmHg 96%
    05:00 +13°C° 0 mm 3 mps 739 mmHg 96%
    06:00 +14°C° 0 mm 4 mps 739 mmHg 93%
    07:00 +15°C° 0 mm 4 mps 739 mmHg 89%
    08:00 +18°C° 0 mm 4 mps 740 mmHg 86%
    09:00 +19°C° 0 mm 5 mps 740 mmHg 78%
    10:00 +21°C° 0 mm 5 mps 740 mmHg 70%
    11:00 +23°C° 0 mm 5 mps 740 mmHg 62%
    12:00 +23°C° 0.1 mm 5 mps 740 mmHg 60%
    13:00 +25°C° 0.1 mm 5 mps 739 mmHg 58%
    14:00 +26°C° 0.1 mm 5 mps 739 mmHg 56%
    15:00 +26°C° 0 mm 5 mps 739 mmHg 57%
    16:00 +26°C° 0 mm 5 mps 739 mmHg 58%
    17:00 +25°C° 0 mm 5 mps 739 mmHg 59%
    18:00 +23°C° 0 mm 4 mps 739 mmHg 66%
    19:00 +21°C° 0 mm 3 mps 739 mmHg 74%
    20:00 +20°C° 0 mm 2 mps 739 mmHg 81%
    21:00 +19°C° 0.1 mm 2 mps 739 mmHg 85%
    22:00 +18°C° 0.1 mm 2 mps 740 mmHg 88%
    23:00 +17°C° 0.1 mm 2 mps 740 mmHg 92%

    Tomorrow, 25 July, Thursday

    Time Temperature Precipitation Wind Pressure Humidity
    00:00 +17°C° 0 mm 2 mps 740 mmHg 93%
    01:00 +16°C° 0 mm 2 mps 740 mmHg 94%
    02:00 +16°C° 0 mm 3 mps 740 mmHg 95%
    03:00 +16°C° 0 mm 2 mps 740 mmHg 95%
    04:00 +15°C° 0 mm 2 mps 740 mmHg 95%
    05:00 +15°C° 0 mm 2 mps 740 mmHg 96%
    06:00 +17°C° 0 mm 3 mps 740 mmHg 90%
    07:00 +18°C° 0 mm 3 mps 740 mmHg 85%
    08:00 +20°C° 0 mm 4 mps 740 mmHg 80%
    09:00 +21°C° 0 mm 4 mps 740 mmHg 73%
    10:00 +24°C° 0 mm 3 mps 741 mmHg 67%
    11:00 +26°C° 0 mm 3 mps 741 mmHg 60%
    12:00 +26°C° 0.1 mm 3 mps 740 mmHg 57%
    13:00 +27°C° 0.1 mm 3 mps 740 mmHg 53%
    14:00 +28°C° 0.1 mm 3 mps 740 mmHg 50%
    15:00 +27°C° 0 mm 3 mps 739 mmHg 52%
    16:00 +27°C° 0 mm 3 mps 739 mmHg 54%
    17:00 +27°C° 0 mm 2 mps 739 mmHg 56%
    18:00 +25°C° 0 mm 2 mps 739 mmHg 63%
    19:00 +23°C° 0 mm 2 mps 739 mmHg 70%
    20:00 +21°C° 0 mm 1 mps 739 mmHg 77%
    21:00 +21°C° 0.2 mm 1 mps 739 mmHg 79%
    22:00 +20°C° 0.2 mm 1 mps 739 mmHg 82%
    23:00 +19°C° 0.2 mm 1 mps 739 mmHg 85%

    Day after tomorrow, 26 July, Friday

    Time Temperature Precipitation Wind Pressure Humidity
    00:00 +19°C° 0 mm 1 mps 738 mmHg 87%
    01:00 +18°C° 0 mm 1 mps 738 mmHg 89%
    02:00 +18°C° 0 mm 1 mps 738 mmHg 91%
    03:00 +16°C° 0 mm 1 mps 738 mmHg 92%
    04:00 +16°C° 0 mm 1 mps 737 mmHg 92%
    05:00 +16°C° 0 mm 1 mps 737 mmHg 92%
    06:00 +17°C° 0.2 mm 2 mps 737 mmHg 89%
    07:00 +19°C° 0.2 mm 2 mps 737 mmHg 86%
    08:00 +20°C° 0.2 mm 3 mps 737 mmHg 82%
    09:00 +22°C° 0.6 mm 3 mps 737 mmHg 74%
    10:00 +24°C° 0.6 mm 3 mps 737 mmHg 66%
    11:00 +26°C° 0.6 mm 3 mps 736 mmHg 58%
    12:00 +26°C° 0 mm 3 mps 736 mmHg 54%
    13:00 +27°C° 0 mm 3 mps 736 mmHg 50%
    14:00 +28°C° 0 mm 2 mps 736 mmHg 45%
    15:00 +27°C° 0 mm 2 mps 736 mmHg 48%
    16:00 +27°C° 0 mm 2 mps 735 mmHg 50%
    17:00 +27°C° 0 mm 2 mps 735 mmHg 52%
    18:00 +25°C° 0.1 mm 2 mps 735 mmHg 60%
    19:00 +23°C° 0.1 mm 2 mps 735 mmHg 69%
    20:00 +20°C° 0.1 mm 2 mps 735 mmHg 77%
    21:00 +19°C° 0.2 mm 2 mps 735 mmHg 81%
    22:00 +18°C° 0.2 mm 2 mps 735 mmHg 85%
    23:00 +18°C° 0.2 mm 1 mps 735 mmHg 89%

    27 July, Saturday

    Time Temperature Precipitation Wind Pressure Humidity
    00:00 +18°C° 0 mm 1 mps 735 mmHg 90%
    01:00 +16°C° 0 mm 1 mps 734 mmHg 91%
    02:00 +16°C° 0 mm 1 mps 734 mmHg 92%
    03:00 +15°C° 0 mm 1 mps 734 mmHg 93%
    04:00 +15°C° 0 mm 1 mps 734 mmHg 94%
    05:00 +15°C° 0 mm 2 mps 734 mmHg 94%
    06:00 +16°C° 0 mm 2 mps 734 mmHg 89%
    07:00 +18°C° 0 mm 2 mps 734 mmHg 84%
    08:00 +19°C° 0 mm 3 mps 734 mmHg 78%
    09:00 +21°C° 0 mm 3 mps 734 mmHg 72%
    10:00 +22°C° 0 mm 3 mps 734 mmHg 65%
    11:00 +25°C° 0 mm 3 mps 734 mmHg 58%
    12:00 +25°C° 0 mm 3 mps 733 mmHg 56%
    13:00 +26°C° 0 mm 3 mps 733 mmHg 55%
    14:00 +26°C° 0 mm 3 mps 733 mmHg 54%
    15:00 +26°C° 0 mm 3 mps 733 mmHg 55%
    16:00 +26°C° 0 mm 4 mps 732 mmHg 57%
    17:00 +25°C° 0 mm 4 mps 732 mmHg 59%
    18:00 +24°C° 0.1 mm 3 mps 732 mmHg 68%
    19:00 +21°C° 0.1 mm 2 mps 732 mmHg 77%
    20:00 +19°C° 0.1 mm 2 mps 732 mmHg 85%
    21:00 +18°C° 0.2 mm 2 mps 732 mmHg 88%
    22:00 +19°C° 0.2 mm 1 mps 732 mmHg 91%
    23:00 +18°C° 0.2 mm 1 mps 732 mmHg 93%

    28 July, Sunday

    Time Temperature Precipitation Wind Pressure Humidity
    00:00 +18°C° 0 mm 1 mps 732 mmHg 94%
    01:00 +16°C° 0 mm 1 mps 732 mmHg 94%
    02:00 +16°C° 0 mm 1 mps 732 mmHg 95%
    03:00 +16°C° 0 mm 1 mps 732 mmHg 95%
    04:00 +16°C° 0 mm 1 mps 732 mmHg 95%
    05:00 +16°C° 0 mm 1 mps 732 mmHg 96%
    06:00 +18°C° 0 mm 1 mps 732 mmHg 91%
    07:00 +19°C° 0 mm 1 mps 732 mmHg 87%
    08:00 +21°C° 0 mm 1 mps 732 mmHg 83%
    09:00 +21°C° 0 mm 2 mps 732 mmHg 75%
    10:00 +24°C° 0 mm 2 mps 732 mmHg 67%
    11:00 +25°C° 0 mm 3 mps 733 mmHg 59%
    12:00 +26°C° 0 mm 3 mps 732 mmHg 56%
    13:00 +27°C° 0 mm 3 mps 732 mmHg 53%
    14:00 +28°C° 0 mm 3 mps 732 mmHg 50%
    15:00 +27°C° 0.5 mm 3 mps 732 mmHg 55%
    16:00 +27°C° 0.5 mm 3 mps 732 mmHg 59%
    17:00 +26°C° 0.5 mm 3 mps 732 mmHg 63%
    18:00 +25°C° 0.3 mm 3 mps 732 mmHg 70%
    19:00 +23°C° 0.3 mm 2 mps 732 mmHg 77%
    20:00 +20°C° 0.3 mm 2 mps 732 mmHg 84%
    21:00 +20°C° 0.4 mm 2 mps 732 mmHg 87%
    22:00 +19°C° 0.4 mm 2 mps 732 mmHg 89%
    23:00 +19°C° 0.4 mm 1 mps 733 mmHg 92%

    29 July, Monday

    Time Temperature Precipitation Wind Pressure Humidity
    00:00 +18°C° 0.1 mm 2 mps 733 mmHg 93%
    01:00 +18°C° 0.1 mm 2 mps 733 mmHg 93%
    02:00 +17°C° 0.1 mm 2 mps 733 mmHg 94%
    03:00 +17°C° 0 mm 2 mps 733 mmHg 95%
    04:00 +17°C° 0 mm 2 mps 733 mmHg 95%
    05:00 +17°C° 0 mm 2 mps 733 mmHg 96%
    06:00 +18°C° 0 mm 2 mps 733 mmHg 93%
    07:00 +19°C° 0 mm 3 mps 733 mmHg 90%
    08:00 +21°C° 0 mm 3 mps 733 mmHg 87%
    09:00 +21°C° 0.5 mm 3 mps 734 mmHg 84%
    10:00 +22°C° 0.5 mm 4 mps 734 mmHg 81%
    11:00 +23°C° 0.5 mm 4 mps 734 mmHg 78%
    12:00 +23°C° 0.4 mm 5 mps 734 mmHg 72%
    13:00 +25°C° 0.4 mm 5 mps 734 mmHg 67%
    14:00 +25°C° 0.4 mm 5 mps 734 mmHg 61%
    15:00 +25°C° 0 mm 5 mps 734 mmHg 61%
    16:00 +23°C° 0 mm 4 mps 735 mmHg 60%
    17:00 +23°C° 0 mm 4 mps 735 mmHg 59%
    18:00 +21°C° 0 mm 4 mps 735 mmHg 65%
    19:00 +20°C° 0 mm 3 mps 735 mmHg 70%
    20:00 +18°C° 0 mm 3 mps 736 mmHg 76%
    21:00 +17°C° 0 mm 3 mps 736 mmHg 78%
    22:00 +16°C° 0 mm 2 mps 737 mmHg 79%
    23:00 +15°C° 0 mm 2 mps 737 mmHg 81%
    Show more